Location: Berg
(47.2344°N, 9.5296°E)
Time: 16:46:59
(UTC+00:00)

Cosmos 1328 - Pass Details

Date: 24 January 2021
Orbit: 528 x 555 km, 82.5° (Epoch: 28 February)

Event Time Altitude Azimuth Distance (km) Brightness Sun altitude
Rises 17:24:33 0° 165° (SSE) 2,712 7.4 -12.3°
Reaches altitude 10° 17:26:51 10° 156° (SSE) 1,820 6.4 -12.7°
Maximum altitude 17:30:27 33° 91° (E) 934 4.5 -13.2°
Enters shadow 17:33:35 13° 31° (NNE) 1,646 5.8 -13.8°
